Tracking 29892 objects as of 21-Nov-2024
HD Live streaming from Space Station
objects crossing your sky now

BREEZE-KM DEB

Track BREEZE-KM DEB now!
10-day predictions


NORAD ID: 41718
Int'l Code: 2015-020F
Perigee: 1,128.0 km
Apogee: 1,479.1 km
Inclination: 82.5 °
Period: 111.5 minutes
Semi major axis: 7674 km
RCS: Unknown
Launch date: March 31, 2015
Source: Commonwealth of Independent States (former USSR) (CIS)
Launch site: PLESETSK MISSILE AND SPACE COMPLEX (PKMTR)

Note: This is SATELLITE DEBRIS
Your satellite tracking list
Your tracking list is empty




NASA's NSSDC Master Catalog

Two Line Element Set (TLE):
1 41718U 15020F   24323.94906119  .00000083  00000-0  23607-3 0  9994
2 41718  82.4894 184.4441 0228735 167.4253 193.2697 12.91278640445649
Source of the keplerian elements: AFSPC